EN

Hourly Weather Abejuela

Today, 14 May, Friday

Time Temperature Precipitation Wind Pressure Humidity
00:00 +8°C° 0 mm 4 mps 647 mmHg 73%
01:00 +7°C° 0 mm 4 mps 647 mmHg 74%
02:00 +7°C° 0 mm 3 mps 646 mmHg 76%
03:00 +7°C° 0 mm 3 mps 646 mmHg 77%
04:00 +6°C° 0 mm 4 mps 646 mmHg 76%
05:00 +6°C° 0 mm 4 mps 647 mmHg 74%
06:00 +6°C° 0 mm 4 mps 647 mmHg 73%
07:00 +8°C° 0 mm 5 mps 648 mmHg 62%
08:00 +9°C° 0 mm 6 mps 648 mmHg 52%
09:00 +11°C° 0 mm 7 mps 649 mmHg 41%
10:00 +12°C° 0 mm 7 mps 650 mmHg 36%
11:00 +15°C° 0 mm 6 mps 650 mmHg 31%
12:00 +16°C° 0 mm 6 mps 651 mmHg 26%
13:00 +16°C° 0 mm 6 mps 651 mmHg 25%
14:00 +17°C° 0 mm 6 mps 651 mmHg 24%
15:00 +19°C° 0 mm 6 mps 651 mmHg 23%
16:00 +17°C° 0 mm 5 mps 651 mmHg 29%
17:00 +16°C° 0 mm 5 mps 650 mmHg 34%
18:00 +14°C° 0 mm 4 mps 650 mmHg 39%
19:00 +13°C° 0 mm 3 mps 650 mmHg 45%
20:00 +12°C° 0 mm 2 mps 650 mmHg 51%
21:00 +11°C° 0 mm 1 mps 650 mmHg 57%
22:00 +11°C° 0 mm 1 mps 650 mmHg 55%
23:00 +10°C° 0 mm 2 mps 649 mmHg 54%

Tomorrow, 15 May, Saturday

Time Temperature Precipitation Wind Pressure Humidity
00:00 +9°C° 0 mm 2 mps 649 mmHg 53%
01:00 +9°C° 0 mm 2 mps 649 mmHg 53%
02:00 +9°C° 0 mm 2 mps 649 mmHg 53%
03:00 +9°C° 0 mm 2 mps 648 mmHg 53%
04:00 +9°C° 0 mm 2 mps 649 mmHg 52%
05:00 +10°C° 0 mm 2 mps 649 mmHg 52%
06:00 +10°C° 0 mm 2 mps 649 mmHg 52%
07:00 +13°C° 0 mm 3 mps 650 mmHg 45%
08:00 +15°C° 0 mm 4 mps 650 mmHg 39%
09:00 +19°C° 0 mm 5 mps 651 mmHg 32%
10:00 +20°C° 0 mm 6 mps 651 mmHg 31%
11:00 +21°C° 0 mm 6 mps 651 mmHg 30%
12:00 +23°C° 0 mm 7 mps 651 mmHg 28%
13:00 +23°C° 0 mm 8 mps 651 mmHg 28%
14:00 +24°C° 0 mm 8 mps 651 mmHg 28%
15:00 +24°C° 0 mm 8 mps 651 mmHg 28%
16:00 +23°C° 0 mm 8 mps 651 mmHg 30%
17:00 +22°C° 0 mm 7 mps 651 mmHg 33%
18:00 +21°C° 0 mm 7 mps 650 mmHg 35%
19:00 +19°C° 0 mm 6 mps 650 mmHg 40%
20:00 +17°C° 0 mm 4 mps 650 mmHg 45%
21:00 +16°C° 0 mm 3 mps 650 mmHg 50%
22:00 +14°C° 0 mm 3 mps 650 mmHg 52%
23:00 +15°C° 0 mm 2 mps 650 mmHg 54%

Day after tomorrow, 16 May, Sunday

Time Temperature Precipitation Wind Pressure Humidity
00:00 +14°C° 0 mm 2 mps 649 mmHg 55%
01:00 +14°C° 0 mm 2 mps 649 mmHg 57%
02:00 +14°C° 0 mm 2 mps 649 mmHg 59%
03:00 +13°C° 0 mm 2 mps 648 mmHg 61%
04:00 +14°C° 0 mm 2 mps 649 mmHg 61%
05:00 +14°C° 0 mm 2 mps 649 mmHg 62%
06:00 +14°C° 0 mm 2 mps 649 mmHg 63%
07:00 +16°C° 0 mm 3 mps 650 mmHg 55%
08:00 +19°C° 0 mm 4 mps 650 mmHg 48%
09:00 +21°C° 0 mm 4 mps 651 mmHg 40%
10:00 +22°C° 0 mm 5 mps 651 mmHg 35%
11:00 +25°C° 0 mm 5 mps 651 mmHg 30%
12:00 +26°C° 0 mm 6 mps 651 mmHg 25%
13:00 +26°C° 0 mm 6 mps 651 mmHg 25%
14:00 +27°C° 0 mm 7 mps 651 mmHg 24%
15:00 +27°C° 0 mm 8 mps 651 mmHg 24%
16:00 +26°C° 0 mm 7 mps 651 mmHg 27%
17:00 +24°C° 0 mm 7 mps 650 mmHg 30%
18:00 +23°C° 0 mm 6 mps 650 mmHg 32%
19:00 +21°C° 0 mm 5 mps 650 mmHg 37%
20:00 +19°C° 0 mm 3 mps 650 mmHg 42%
21:00 +17°C° 0 mm 2 mps 650 mmHg 47%
22:00 +16°C° 0 mm 1 mps 650 mmHg 53%
23:00 +15°C° 0 mm 1 mps 649 mmHg 58%

17 May, Monday

Time Temperature Precipitation Wind Pressure Humidity
00:00 +14°C° 0 mm 1 mps 649 mmHg 64%
01:00 +13°C° 0 mm 1 mps 649 mmHg 71%
02:00 +12°C° 0 mm 1 mps 649 mmHg 78%
03:00 +11°C° 0 mm 1 mps 649 mmHg 85%
04:00 +11°C° 0 mm 1 mps 649 mmHg 85%
05:00 +11°C° 0 mm 1 mps 649 mmHg 85%
06:00 +11°C° 0 mm 1 mps 650 mmHg 86%
07:00 +12°C° 0 mm 1 mps 650 mmHg 81%
08:00 +13°C° 0 mm 1 mps 651 mmHg 75%
09:00 +15°C° 0 mm 2 mps 651 mmHg 70%
10:00 +16°C° 0 mm 2 mps 651 mmHg 66%
11:00 +16°C° 0 mm 3 mps 651 mmHg 63%
12:00 +17°C° 0 mm 3 mps 652 mmHg 59%
13:00 +17°C° 0 mm 3 mps 652 mmHg 59%
14:00 +17°C° 0 mm 3 mps 651 mmHg 60%
15:00 +17°C° 0 mm 3 mps 651 mmHg 60%
16:00 +17°C° 0 mm 3 mps 651 mmHg 61%
17:00 +16°C° 0 mm 3 mps 651 mmHg 62%
18:00 +16°C° 0 mm 3 mps 651 mmHg 63%
19:00 +14°C° 0 mm 2 mps 652 mmHg 71%
20:00 +12°C° 0 mm 1 mps 652 mmHg 79%
21:00 +11°C° 0 mm 1 mps 652 mmHg 87%
22:00 +11°C° 0 mm 1 mps 652 mmHg 86%
23:00 +11°C° 0 mm 1 mps 652 mmHg 86%

18 May, Tuesday

Time Temperature Precipitation Wind Pressure Humidity
00:00 +11°C° 0 mm 1 mps 652 mmHg 85%
01:00 +10°C° 0 mm 1 mps 652 mmHg 85%
02:00 +10°C° 0 mm 1 mps 652 mmHg 85%
03:00 +10°C° 0 mm 1 mps 652 mmHg 85%
04:00 +10°C° 0 mm 1 mps 653 mmHg 84%
05:00 +10°C° 0 mm 1 mps 653 mmHg 83%
06:00 +10°C° 0 mm 1 mps 653 mmHg 81%
07:00 +11°C° 0 mm 1 mps 653 mmHg 80%
08:00 +11°C° 0 mm 1 mps 654 mmHg 80%
09:00 +12°C° 0 mm 1 mps 654 mmHg 79%
10:00 +13°C° 0 mm 2 mps 654 mmHg 74%
11:00 +14°C° 0 mm 2 mps 654 mmHg 70%
12:00 +14°C° 0 mm 3 mps 655 mmHg 66%
13:00 +16°C° 0 mm 3 mps 655 mmHg 62%
14:00 +17°C° 0 mm 3 mps 654 mmHg 58%
15:00 +18°C° 0 mm 4 mps 654 mmHg 55%
16:00 +17°C° 0 mm 3 mps 654 mmHg 57%
17:00 +17°C° 0 mm 3 mps 654 mmHg 60%
18:00 +16°C° 0 mm 3 mps 654 mmHg 63%
19:00 +14°C° 0 mm 2 mps 654 mmHg 71%
20:00 +12°C° 0 mm 2 mps 654 mmHg 79%
21:00 +11°C° 0 mm 1 mps 654 mmHg 88%
22:00 +10°C° 0 mm 1 mps 654 mmHg 88%
23:00 +9°C° 0 mm 0 mps 654 mmHg 88%

19 May, Wednesday

Time Temperature Precipitation Wind Pressure Humidity
00:00 +9°C° 0 mm 0 mps 653 mmHg 89%
01:00 +9°C° 0 mm 0 mps 653 mmHg 87%
02:00 +10°C° 0 mm 1 mps 653 mmHg 85%
03:00 +10°C° 0 mm 1 mps 653 mmHg 83%
04:00 +10°C° 0 mm 1 mps 654 mmHg 78%
05:00 +10°C° 0 mm 0 mps 654 mmHg 73%
06:00 +11°C° 0 mm 0 mps 655 mmHg 69%
07:00 +14°C° 0 mm 1 mps 655 mmHg 62%
08:00 +15°C° 0 mm 1 mps 656 mmHg 55%
09:00 +18°C° 0 mm 1 mps 656 mmHg 48%
10:00 +18°C° 0 mm 2 mps 656 mmHg 45%
11:00 +20°C° 0 mm 3 mps 657 mmHg 43%
12:00 +21°C° 0 mm 3 mps 657 mmHg 40%
13:00 +21°C° 0 mm 4 mps 656 mmHg 41%
14:00 +21°C° 0 mm 4 mps 656 mmHg 43%
15:00 +21°C° 0 mm 4 mps 656 mmHg 45%
16:00 +20°C° 0 mm 4 mps 655 mmHg 50%
17:00 +19°C° 0 mm 3 mps 655 mmHg 56%
18:00 +17°C° 0 mm 3 mps 655 mmHg 62%
19:00 +16°C° 0 mm 2 mps 655 mmHg 69%
20:00 +14°C° 0 mm 1 mps 655 mmHg 76%
21:00 +12°C° 0 mm 1 mps 655 mmHg 83%
22:00 +12°C° 0 mm 1 mps 654 mmHg 83%
23:00 +11°C° 0 mm 0 mps 654 mmHg 84%
Show more